Location: G�ppingen
(48.7000°N, 9.6670°E)
Time: 06:29:28
(UTC+02:00)

N. Korean satellite - Visible Passes

Search period start: 21 September 2018 00:00
Search period end: 01 October 2018 00:00
Orbit: 458 x 511 km, 97.2° (Epoch: 20 September)

Date Brightness Start Highest point End Pass type
(mag) Time Alt. Az. Time Alt. Az. Time Alt. Az.
22 Sep 9.8 19:52:01 10° SW 19:54:28 18° W 19:56:56 10° NW visible
25 Sep 10.5 20:14:19 10° W 20:15:05 11° W 20:15:53 10° WNW visible
26 Sep 9.8 19:47:51 10° SW 19:50:29 19° W 19:53:10 10° NW visible
29 Sep 10.3 20:09:41 10° WSW 20:11:05 12° W 20:12:30 10° WNW visible
30 Sep 9.6 19:43:40 10° SW 19:46:29 21° W 19:49:22 10° NW visible
